Flag for U.S.A. Weather past 2 weeks in Des Moines, Iowa, U.S.A.

Now
68 °F

More clouds than sun.


Feels Like: 68 °F
Forecast: 57 / 79 °F
Wind: No wind

Location: Des Moines International Airport

Current Time: Jul 2, 2015 at 7:07:54 PM

Latest Report: Jul 2, 2015 at 5:54 PM


Visibility: 10 mi

Pressure: 29.96 "Hg

Humidity: 61%

Dew point: 54 °F

Location of Des MoinesLocation

Historic Weather in Des Moines — Graph

°F

Des Moines temperature yesterday

Maximum temperature yesterday: 75 °F (at 12:54 PM)
Minimum temperature yesterday: 65 °F (at 11:54 PM)
Average temperature yesterday: 71 °F

Past Weeks' High & Low Weather Summary

 TemperatureHumidityPressure
High90 °F (Jun 20, 2:54 PM)93% (Jun 24, 10:54 PM)30.13 "Hg (Jun 24, 10:54 PM)
Low59 °F (Jul 2, 6:54 AM)37% (Jun 23, 2:54 PM)29.68 "Hg (Jun 20, 5:54 PM)
Average73 °F70%29.92 "Hg
* Reported Jun 17 5:54 PM — Jul 2 5:54 PM, Des Moines, Weather by CustomWeather, © 2015

Note: Actual official high and low records may vary slightly from our data, if they occured in-between our weather recording intervals... More about our weather records

Advertising

Des Moines weather history for previous 24 hours

 ConditionsComfort  
Time TempWeatherWind HumidityBarometerVisibility
5:54 PM
Thu, Jul 2
68 °FMore clouds than sun.No wind61%29.96 "Hg10 mi
4:54 PM69 °FLight rain. Mostly cloudy.No wind53%29.97 "Hg10 mi
3:54 PM68 °FMore clouds than sun.5 mph51%29.97 "Hg10 mi
2:54 PM68 °FOvercast.7 mph51%29.98 "Hg10 mi
1:54 PM69 °FMostly cloudy.8 mph51%29.98 "Hg10 mi
12:54 PM70 °FOvercast.8 mph57%29.97 "Hg10 mi
11:54 AM68 °FOvercast.9 mph65%29.97 "Hg10 mi
10:54 AM66 °FMore clouds than sun.9 mph70%29.98 "Hg10 mi
9:54 AM65 °FMostly cloudy.9 mph76%29.98 "Hg10 mi
8:54 AM63 °FMostly cloudy.8 mph78%29.98 "Hg10 mi
7:54 AM61 °FHigh level clouds.7 mph78%29.97 "Hg10 mi
6:54 AM59 °FPartly sunny.9 mph81%29.95 "Hg10 mi
5:54 AM60 °FPassing clouds.10 mph78%29.95 "Hg10 mi
4:54 AM60 °FClear.9 mph80%29.95 "Hg10 mi
3:54 AM60 °FClear.8 mph83%29.93 "Hg10 mi
2:54 AM62 °FClear.9 mph78%29.93 "Hg10 mi
1:54 AM63 °FClear.8 mph78%29.93 "Hg10 mi
12:54 AM63 °FClear.10 mph78%29.93 "Hg10 mi
11:54 PM
Wed, Jul 1
65 °FPassing clouds.9 mph73%29.94 "Hg10 mi
10:54 PM67 °FPassing clouds.9 mph71%29.93 "Hg10 mi
9:54 PM69 °FPassing clouds.9 mph63%29.92 "Hg10 mi
8:54 PM71 °FMostly cloudy.9 mph61%29.90 "Hg10 mi
7:54 PM72 °FMostly cloudy.9 mph61%29.90 "Hg10 mi
Weather by CustomWeather, © 2015

See weather overviewHow to use our weather pages